DW3640 Weather Reports


Display with metric or nautical units.
time (UTC)temp
F
wind
direction
speed
MPH
gust
MPH
rain 1hr
in
rain 24hr
in
rain mn
in
humidity
%
barometer
mb
20260507134427 55 187 0.0 0.0 0.00 0.00 0.00 99 1013.4
20260507133923 55 189 0.0 0.0 0.00 0.00 0.00 99 1013.4
20260507133419 55 180 0.0 0.0 0.00 0.00 0.00 99 1013.5
20260507132917 55 173 0.0 0.0 0.00 0.00 0.00 99 1013.6
20260507132413 55 187 0.0 0.0 0.00 0.00 0.00 99 1013.4
20260507131910 55 188 0.0 0.0 0.00 0.00 0.00 99 1013.5
20260507131407 55 193 0.0 0.0 0.00 0.00 0.00 99 1013.5
20260507130904 55 184 0.0 0.0 0.00 0.00 0.00 99 1013.4
20260507130401 55 186 0.0 0.0 0.00 0.00 0.00 99 1013.4
20260507125900 55 190 0.0 0.0 0.00 0.00 0.00 99 1013.3
20260507125357 56 186 0.0 0.0 0.00 0.00 0.00 99 1013.4
20260507124854 55 188 0.0 0.0 0.00 0.00 0.00 99 1013.4
20260507124350 55 186 0.0 0.0 0.00 0.00 0.00 99 1013.1
20260507123849 55 189 0.0 0.0 0.00 0.00 0.00 98 1013.1
20260507123345 55 187 0.0 0.0 0.00 0.00 0.00 98 1013.0
20260507122842 55 177 0.0 0.0 0.00 0.00 0.00 98 1013.1
20260507122337 55 185 0.0 0.0 0.00 0.00 0.00 98 1013.0
20260507121834 55 181 0.0 0.0 0.00 0.00 0.00 98 1013.1
20260507121329 55 183 0.0 0.0 0.00 0.00 0.00 98 1012.9
20260507120826 55 180 0.0 0.0 0.00 0.00 0.00 98 1013.0
20260507120322 55 183 0.0 0.0 0.00 0.00 0.00 98 1013.0
20260507115819 55 189 0.0 0.0 0.00 0.00 0.00 98 1013.2
20260507115315 55 189 0.0 0.0 0.00 0.00 0.00 98 1013.1
20260507114810 56 147 0.0 0.0 0.00 0.00 0.00 98 1013.2
20260507114308 56 171 0.0 0.0 0.00 0.00 0.00 98 1013.2
20260507113805 56 182 0.0 0.0 0.00 0.00 0.00 98 1012.7
20260507113302 56 187 0.0 0.0 0.00 0.00 0.00 98 1013.0
20260507112800 56 183 0.0 0.0 0.00 0.00 0.00 98 1013.0
20260507112256 56 184 0.0 0.0 0.00 0.00 0.00 98 1013.1
20260507111755 56 170 0.0 0.0 0.00 0.00 0.00 98 1013.2
20260507111250 56 161 0.0 0.0 0.00 0.00 0.00 98 1013.3
20260507110747 56 173 0.0 0.0 0.00 0.00 0.00 97 1013.0
20260507110243 56 181 0.0 0.0 0.00 0.00 0.00 98 1013.2
20260507105740 56 178 0.0 0.0 0.00 0.00 0.00 98 1013.3
20260507105236 56 179 0.0 0.0 0.00 0.00 0.00 98 1013.1
20260507104734 56 179 0.0 0.0 0.00 0.00 0.00 97 1013.1
20260507104230 56 179 0.0 0.0 0.00 0.00 0.00 98 1013.2
20260507103726 56 181 0.0 0.0 0.00 0.00 0.00 97 1013.1
20260507103223 56 181 0.0 0.0 0.00 0.00 0.00 97 1013.3
20260507102719 56 182 0.0 0.0 0.00 0.00 0.00 97 1013.4
20260507102216 56 187 0.0 0.0 0.00 0.00 0.00 97 1013.5
20260507101712 56 168 0.0 0.0 0.00 0.00 0.00 97 1013.6
20260507101207 56 175 0.0 0.0 0.00 0.00 0.00 97 1013.6
20260507100705 56 184 0.0 0.0 0.00 0.00 0.00 97 1013.6
20260507100203 56 188 0.0 0.0 0.00 0.00 0.00 97 1013.3
20260507095701 57 182 0.0 0.0 0.00 0.00 0.00 97 1013.4
20260507095157 57 160 0.0 0.0 0.00 0.00 0.00 97 1013.6
20260507094654 57 178 0.0 0.0 0.00 0.00 0.00 97 1013.5
20260507094150 57 182 0.0 0.0 0.00 0.00 0.00 97 1013.6
20260507093648 57 178 0.0 0.0 0.00 0.00 0.00 97 1013.4
20260507093146 57 182 0.0 0.0 0.00 0.00 0.00 97 1013.6
20260507092643 57 185 0.0 0.0 0.00 0.00 0.00 96 1013.7
20260507092139 57 185 0.0 0.0 0.00 0.00 0.00 96 1013.5
20260507091636 57 179 0.0 0.0 0.00 0.00 0.00 96 1013.8
20260507091132 57 180 0.0 0.0 0.00 0.00 0.00 96 1013.8
20260507090628 57 184 0.0 0.0 0.00 0.00 0.00 96 1013.7
20260507090126 57 185 0.0 0.0 0.00 0.00 0.00 96 1014.1
20260507085622 58 180 0.0 0.0 0.00 0.00 0.00 96 1013.9
20260507085119 58 182 0.0 0.0 0.00 0.00 0.00 96 1013.9
20260507084615 58 185 0.0 0.0 0.00 0.00 0.00 96 1014.1
20260507084112 58 182 0.0 0.0 0.00 0.00 0.00 96 1014.1
20260507083609 58 184 0.0 0.0 0.00 0.00 0.00 95 1014.2
20260507083106 58 184 0.0 0.0 0.00 0.00 0.00 95 1014.2
20260507082602 58 182 0.0 0.0 0.00 0.00 0.00 95 1014.4
20260507082058 58 181 0.0 0.0 0.00 0.00 0.00 95 1014.2
20260507081555 58 183 0.0 0.0 0.00 0.00 0.00 95 1014.3
20260507081052 58 181 0.0 0.0 0.00 0.00 0.00 95 1014.2
20260507080548 58 173 0.0 0.0 0.00 0.00 0.00 95 1014.2
20260507080044 58 181 0.0 0.0 0.00 0.00 0.00 95 1014.4
20260507075539 58 184 0.0 0.0 0.00 0.00 0.00 95 1014.5
20260507075036 58 182 0.0 0.0 0.00 0.00 0.00 95 1014.5
20260507074533 58 174 0.0 0.0 0.00 0.00 0.00 95 1014.5
20260507074032 58 183 0.0 0.0 0.00 0.00 0.00 95 1014.4
20260507073527 58 183 0.0 0.0 0.00 0.00 0.00 95 1014.4
20260507073024 58 158 0.0 0.0 0.00 0.00 0.00 95 1014.4
20260507072521 58 179 0.0 0.0 0.00 0.00 0.00 95 1014.2
20260507072018 59 191 0.0 0.0 0.00 0.00 0.00 95 1014.3
20260507071516 59 184 0.0 0.0 0.00 0.00 0.00 95 1014.2
20260507071012 59 178 0.0 0.0 0.00 0.00 0.00 95 1014.4
20260507070509 59 190 0.0 0.0 0.00 0.00 0.00 94 1014.4
20260507070010 59 184 0.0 0.0 0.00 0.00 0.00 94 1014.5
20260507065502 59 182 0.0 0.0 0.00 0.00 0.00 94 1014.6
20260507065000 59 181 0.0 0.0 0.00 0.00 0.00 95 1014.7
20260507064458 59 185 0.0 0.0 0.00 0.00 0.00 95 1014.6
20260507063956 59 185 0.0 0.0 0.00 0.00 0.00 95 1014.5
20260507063453 59 185 0.0 0.0 0.00 0.00 0.00 95 1014.7
20260507062950 59 186 0.0 0.0 0.00 0.00 0.00 96 1014.6
20260507062447 59 185 0.0 0.0 0.00 0.00 0.00 96 1014.7
20260507061944 59 184 0.0 0.0 0.00 0.00 0.00 96 1014.5
20260507061442 59 194 0.0 0.0 0.00 0.00 0.00 96 1014.6
20260507060940 59 194 0.0 0.0 0.00 0.00 0.00 96 1014.8
20260507060437 59 193 0.0 0.0 0.00 0.00 0.00 96 1014.7
20260507055933 59 193 0.0 0.0 0.00 0.00 0.00 95 1014.7
20260507055428 59 194 0.0 0.0 0.00 0.00 0.00 95 1014.7
20260507054926 59 195 0.0 0.0 0.00 0.00 0.00 95 1014.7
20260507054421 59 194 0.0 0.0 0.00 0.00 0.00 95 1014.6
20260507053919 60 194 0.0 0.0 0.00 0.00 0.00 95 1014.7
20260507053416 60 194 0.0 0.0 0.00 0.00 0.00 94 1014.7
20260507052915 60 195 0.0 0.0 0.00 0.00 0.00 94 1014.6
20260507052412 60 195 0.0 0.0 0.00 0.00 0.00 94 1014.6
20260507051909 60 193 0.0 0.0 0.00 0.00 0.00 93 1014.6
20260507051407 60 193 0.0 0.0 0.00 0.00 0.00 93 1014.7
20260507050903 60 194 0.0 0.0 0.00 0.00 0.00 93 1014.6
20260507050400 60 195 0.0 0.0 0.00 0.00 0.00 93 1014.6
20260507045857 60 198 0.0 0.0 0.00 0.00 0.00 92 1014.5
20260507045353 60 229 0.0 0.0 0.00 0.00 0.00 92 1014.3
20260507044851 60 197 0.0 0.0 0.00 0.00 0.00 92 1014.5
20260507044347 60 193 0.0 0.0 0.00 0.00 0.00 91 1014.4
20260507043843 60 195 0.0 0.0 0.00 0.00 0.00 91 1014.5
20260507043340 60 197 0.0 0.0 0.00 0.00 0.00 90 1014.4
20260507042836 61 227 0.0 0.0 0.00 0.00 0.00 89 1014.3
20260507042332 60 236 0.0 0.0 0.00 0.00 0.00 89 1014.3
20260507041829 60 228 0.0 0.0 0.00 0.00 0.00 89 1014.4
20260507041325 60 196 0.0 0.0 0.00 0.00 0.00 89 1014.4
20260507040823 60 216 0.0 0.0 0.00 0.00 0.00 89 1014.3
20260507040319 61 185 0.0 0.0 0.00 0.00 0.00 89 1014.3
20260507035815 61 205 0.0 0.0 0.00 0.00 0.00 88 1014.4
20260507035310 61 192 0.0 0.0 0.00 0.00 0.00 88 1014.1
20260507034808 61 207 0.0 0.0 0.00 0.00 0.00 88 1014.2
20260507034305 61 212 0.0 0.0 0.00 0.00 0.00 88 1014.1
20260507033803 61 205 0.0 0.0 0.00 0.00 0.00 88 1014.0
20260507033301 61 197 0.0 0.0 0.00 0.00 0.00 88 1014.2
20260507032757 61 205 0.0 0.0 0.00 0.00 0.00 88 1014.0
20260507032253 61 209 0.0 0.0 0.00 0.00 0.00 87 1013.9
20260507031750 61 198 0.0 0.0 0.00 0.00 0.00 87 1013.9
20260507031247 62 195 0.0 0.0 0.00 0.00 0.00 88 1013.9
20260507030744 62 222 0.0 0.0 0.00 0.00 0.00 87 1013.9
20260507030241 62 237 0.0 0.0 0.00 0.00 0.00 87 1013.9
20260507025738 62 200 0.0 0.0 0.00 0.00 0.00 87 1013.7
20260507025235 62 204 0.0 1.0 0.00 0.00 0.00 87 1013.8
20260507024733 62 253 0.0 6.0 0.00 0.00 0.00 87 1013.7
20260507024230 62 277 2.0 5.0 0.00 0.00 0.00 86 1013.7
20260507023726 62 271 4.0 9.0 0.00 0.00 0.00 85 1013.6
20260507023223 63 266 3.0 6.0 0.00 0.00 0.00 84 1013.5
20260507022720 64 199 0.0 2.0 0.00 0.00 0.00 80 1013.6
20260507022216 64 226 0.0 0.0 0.00 0.00 0.00 78 1013.5
20260507021712 64 228 0.0 0.0 0.00 0.00 0.00 77 1013.4
20260507021208 65 262 0.0 0.0 0.00 0.00 0.00 74 1013.6
20260507020707 66 213 0.0 0.0 0.00 0.00 0.00 74 1013.5
20260507020202 66 199 0.0 0.0 0.00 0.00 0.00 75 1013.4
20260507015700 66 194 0.0 1.0 0.00 0.00 0.00 76 1013.4
20260507015158 66 248 0.0 0.0 0.00 0.00 0.00 75 1013.3
20260507014654 66 266 4.0 7.0 0.00 0.00 0.00 75 1013.2
20260507014150 66 226 0.0 1.0 0.00 0.00 0.00 74 1013.5
20260507013647 67 237 1.0 5.0 0.00 0.00 0.00 71 1013.4
20260507013144 67 198 0.0 2.0 0.00 0.00 0.00 71 1013.3
20260507012642 67 267 1.0 8.0 0.00 0.00 0.00 67 1013.2
20260507012137 69 264 0.0 0.0 0.00 0.00 0.00 68 1013.3
20260507011635 68 252 0.0 5.0 0.00 0.00 0.00 66 1013.2
20260507011131 67 214 0.0 0.0 0.00 0.00 0.00 70 1013.4
20260507010626 68 264 1.0 3.0 0.00 0.00 0.00 69 1013.1
20260507010122 67 214 0.0 8.0 0.00 0.00 0.00 71 1013.3
20260507005620 69 259 0.0 0.0 0.00 0.00 0.00 68 1013.3
20260507005116 68 227 0.0 3.0 0.00 0.00 0.00 68 1013.3
20260507004613 69 222 0.0 0.0 0.00 0.00 0.00 67 1013.0
20260507004110 70 301 0.0 0.0 0.00 0.00 0.00 63 1013.3
20260507003606 68 203 0.0 0.0 0.00 0.00 0.00 67 1013.2
20260507003101 68 260 0.0 1.0 0.00 0.00 0.00 66 1013.1
20260507002558 67 243 1.0 8.0 0.00 0.00 0.00 67 1013.4
20260507002054 66 271 3.0 9.0 0.00 0.00 0.00 69 1013.1
20260507001551 67 243 0.0 7.0 0.00 0.00 0.00 64 1013.0
20260507001048 66 220 1.0 13.0 0.00 0.00 0.00 66 1013.1
20260507000544 69 260 6.0 13.0 0.00 0.00 0.00 67 1013.1
20260507000040 67 273 0.0 5.0 0.00 0.00 0.00 68 1013.0
20260506235538 67 261 6.0 11.0 0.00 0.00 0.00 66 1013.0
20260506235033 67 242 0.0 5.0 0.00 0.00 0.00 64 1013.2
20260506234531 67 267 0.0 8.0 0.00 0.00 0.00 67 1012.9
20260506234028 66 279 0.0 9.0 0.00 0.00 0.00 69 1013.0
20260506233524 67 282 0.0 8.0 0.00 0.00 0.00 71 1012.9
20260506233021 67 284 0.0 6.0 0.00 0.00 0.00 69 1013.0
20260506232517 67 279 4.0 10.0 0.00 0.00 0.00 69 1013.1
20260506232013 66 273 0.0 10.0 0.00 0.00 0.00 70 1012.9
20260506231511 67 258 0.0 8.0 0.00 0.00 0.00 72 1013.1
20260506231009 70 246 0.0 9.0 0.00 0.00 0.00 67 1013.1
20260506230504 70 281 0.0 1.0 0.00 0.00 0.00 68 1013.3
20260506230002 70 236 1.0 6.0 0.00 0.00 0.00 66 1013.0
20260506225459 69 232 4.0 8.0 0.00 0.00 0.00 66 1013.2
20260506224955 71 247 9.0 13.0 0.00 0.00 0.00 63 1013.1
20260506224452 70 265 4.0 9.0 0.00 0.00 0.00 66 1013.1
20260506223948 69 190 0.0 9.0 0.00 0.00 0.00 66 1013.2
20260506223444 71 293 0.0 1.0 0.00 0.00 0.00 64 1013.2
20260506222942 71 241 1.0 2.0 0.00 0.00 0.00 62 1013.2
20260506222438 72 247 0.0 2.0 0.00 0.00 0.00 63 1013.2
20260506221935 71 295 0.0 0.0 0.00 0.00 0.00 64 1013.3
20260506221432 71 295 2.0 5.0 0.00 0.00 0.00 64 1013.5
20260506220930 70 342 0.0 0.0 0.00 0.00 0.00 64 1013.6
20260506220425 70 267 4.0 9.0 0.00 0.00 0.00 68 1013.3
20260506215922 69 255 0.0 6.0 0.00 0.00 0.00 69 1013.5
20260506215418 68 285 0.0 0.0 0.00 0.00 0.00 71 1013.6
20260506214914 68 236 4.0 10.0 0.00 0.00 0.00 72 1013.8
20260506214411 67 284 3.0 9.0 0.00 0.00 0.00 73 1013.8
20260506213909 67 232 0.0 9.0 0.00 0.00 0.00 73 1013.6
20260506213406 67 259 0.0 8.0 0.00 0.00 0.00 72 1013.7
20260506212904 68 273 6.0 15.0 0.00 0.00 0.00 72 1013.7
20260506212359 68 261 4.0 10.0 0.00 0.00 0.00 72 1013.7
20260506211854 67 240 4.0 10.0 0.00 0.00 0.00 72 1013.6
20260506211350 67 287 3.0 11.0 0.00 0.00 0.00 73 1013.8
20260506210848 66 267 11.0 15.0 0.00 0.00 0.00 73 1013.9
20260506210344 67 282 8.0 11.0 0.00 0.00 0.00 72 1013.8
20260506205842 66 223 0.0 9.0 0.00 0.00 0.00 74 1013.9
20260506205337 66 273 4.0 11.0 0.00 0.00 0.00 73 1014.2
20260506204834 66 278 5.0 11.0 0.00 0.00 0.00 73 1014.2
20260506204332 66 268 1.0 9.0 0.00 0.00 0.00 74 1014.0
20260506203829 67 272 7.0 14.0 0.00 0.00 0.00 74 1014.0
20260506203326 66 278 6.0 10.0 0.00 0.00 0.00 74 1014.0
20260506202823 66 274 1.0 11.0 0.00 0.00 0.00 74 1013.8
20260506202320 66 292 2.0 14.0 0.00 0.00 0.00 75 1014.0
20260506201816 66 286 6.0 15.0 0.00 0.00 0.00 73 1014.0
20260506201314 67 264 5.0 18.0 0.00 0.00 0.00 73 1013.9
20260506200811 67 252 1.0 10.0 0.00 0.00 0.00 73 1014.2
20260506200307 67 285 8.0 14.0 0.00 0.00 0.00 72 1014.0
20260506195803 67 294 4.0 13.0 0.00 0.00 0.00 73 1014.1
20260506195300 66 283 8.0 14.0 0.00 0.00 0.00 72 1014.3
20260506194758 67 284 4.0 11.0 0.00 0.00 0.00 72 1014.3
20260506194254 67 269 1.0 11.0 0.00 0.00 0.00 72 1014.4
20260506193752 68 237 3.0 10.0 0.00 0.00 0.00 69 1014.4
20260506193248 67 253 3.0 9.0 0.00 0.00 0.00 71 1014.4
20260506192744 67 253 7.0 9.0 0.00 0.00 0.00 70 1014.4
20260506192241 67 287 3.0 8.0 0.00 0.00 0.00 71 1014.4
20260506191738 67 262 6.0 9.0 0.00 0.00 0.00 70 1014.6
20260506191234 67 266 0.0 6.0 0.00 0.00 0.00 70 1014.4
20260506190732 68 223 1.0 10.0 0.00 0.00 0.00 71 1014.6
20260506190228 68 278 6.0 8.0 0.00 0.00 0.00 70 1014.5
20260506185725 67 218 0.0 8.0 0.00 0.00 0.00 70 1014.8
20260506185221 67 251 5.0 7.0 0.00 0.00 0.00 71 1014.9
20260506184719 67 258 0.0 5.0 0.00 0.00 0.00 71 1014.8
20260506184216 66 233 0.0 2.0 0.00 0.00 0.00 71 1015.1
20260506183713 67 231 2.0 8.0 0.00 0.00 0.00 71 1014.8
20260506183209 67 249 0.0 6.0 0.00 0.00 0.00 70 1015.0
20260506182706 66 251 2.0 8.0 0.00 0.00 0.00 71 1015.0
20260506182204 67 210 0.0 7.0 0.00 0.00 0.00 70 1015.2
20260506181701 68 258 0.0 2.0 0.00 0.00 0.00 68 1015.1
20260506181158 67 242 0.0 3.0 0.00 0.00 0.00 70 1015.4
20260506180655 67 214 0.0 2.0 0.00 0.00 0.00 71 1015.2
20260506180151 67 221 0.0 5.0 0.00 0.00 0.00 70 1015.4
20260506175648 66 256 0.0 8.0 0.00 0.00 0.00 69 1015.2
20260506175144 68 280 0.0 6.0 0.00 0.00 0.00 69 1015.3
20260506174637 67 232 0.0 0.0 0.00 0.00 0.00 67 1015.3
20260506174134 67 46 0.0 0.0 0.00 0.00 0.00 67 1015.5
20260506173631 66 243 0.0 0.0 0.00 0.00 0.00 69 1015.4
20260506173128 67 289 0.0 0.0 0.00 0.00 0.00 67 1015.4
20260506172625 66 259 0.0 1.0 0.00 0.00 0.00 67 1015.7
20260506172121 66 200 0.0 0.0 0.00 0.00 0.00 68 1015.6
20260506171619 66 285 0.0 0.0 0.00 0.00 0.00 69 1015.6
20260506171116 66 213 0.0 0.0 0.00 0.00 0.00 69 1015.8
20260506170614 64 198 0.0 0.0 0.00 0.00 0.00 71 1015.7
20260506170105 64 242 0.0 0.0 0.00 0.00 0.00 71 1015.5
20260506165603 64 200 0.0 0.0 0.00 0.00 0.00 71 1015.7
20260506165059 64 252 0.0 2.0 0.00 0.00 0.00 71 1015.4
20260506164556 64 255 0.0 0.0 0.00 0.00 0.00 72 1015.7
20260506164054 64 196 0.0 0.0 0.00 0.00 0.00 72 1015.5
20260506163549 63 225 0.0 0.0 0.00 0.00 0.00 73 1015.8
20260506163046 64 190 0.0 0.0 0.00 0.00 0.00 73 1015.7
20260506162542 62 203 0.0 0.0 0.00 0.00 0.00 75 1015.7
20260506162039 63 184 0.0 0.0 0.00 0.00 0.00 75 1015.8
20260506161536 63 201 0.0 0.0 0.00 0.00 0.00 73 1015.7
20260506161028 64 177 0.0 0.0 0.00 0.00 0.00 72 1015.7
20260506160525 63 79 0.0 0.0 0.00 0.00 0.00 74 1015.4
20260506160022 62 214 0.0 0.0 0.00 0.00 0.00 76 1015.7
20260506155521 63 199 0.0 0.0 0.00 0.00 0.00 74 1015.5
20260506153657 62 192 0.0 0.0 0.00 0.00 0.00 75 1015.7
20260506153155 62 182 0.0 0.0 0.00 0.00 0.00 76 1015.7
20260506152652 62 167 0.0 0.0 0.00 0.00 0.00 75 1015.8
20260506152149 62 182 0.0 0.0 0.00 0.00 0.00 75 1015.7
20260506151648 61 186 0.0 0.0 0.00 0.00 0.00 77 1015.7
20260506151144 62 180 0.0 0.0 0.00 0.00 0.00 76 1015.8
20260506150641 61 174 0.0 0.0 0.00 0.00 0.00 78 1015.8
20260506150138 60 188 0.0 0.0 0.00 0.00 0.00 78 1015.8
20260506145635 60 185 0.0 0.0 0.00 0.00 0.00 78 1016.0
20260506145131 60 178 0.0 0.0 0.00 0.00 0.00 79 1015.6
20260506144630 60 169 0.0 0.0 0.00 0.00 0.00 79 1015.8
20260506144126 59 168 0.0 0.0 0.00 0.00 0.00 80 1015.6
20260506143624 58 181 0.0 0.0 0.00 0.00 0.00 82 1015.8
20260506143121 57 183 0.0 0.0 0.00 0.00 0.00 86 1015.7
20260506142620 57 181 0.0 0.0 0.00 0.00 0.00 88 1015.9
20260506142117 55 186 0.0 0.0 0.00 0.00 0.00 89 1015.7
20260506141615 55 184 0.0 0.0 0.00 0.00 0.00 90 1015.6
20260506141113 55 184 0.0 0.0 0.00 0.00 0.00 91 1015.7
20260506140610 54 161 0.0 0.0 0.00 0.00 0.00 92 1015.5
20260506140107 53 177 0.0 0.0 0.00 0.00 0.00 92 1015.5
20260506135604 53 187 0.0 0.0 0.00 0.00 0.00 93 1015.6
20260506135100 53 188 0.0 0.0 0.00 0.00 0.00 93 1015.7